Regional Weather Roundup
Issued by NWS

Home | Current Version | Previous Version | Text Only | Print | Product List | Glossary Off
Versions: 1 2 3 4 5 6 7 8 9 10 11 12 13 14 15 16 17 18 19 20 21 22 23 24 25 26 27 28 29 30 31 32 33 34 35 36 37 38 39 40 41 42 43 44 45 46 47 48 49 50

007
ASUS43 KMPX 281910
RWRMN
WEATHER ROUNDUP FOR MINNESOTA
NATIONAL WEATHER SERVICE TWIN CITIES/CHANHASSEN MN
200 PM CDT SUN AUG 28 2016


NOTE: "FAIR" INDICATES FEW OR NO CLOUDS BELOW 12,000 FEET WITH NO
SIGNIFICANT WEATHER AND/OR OBSTRUCTIONS TO VISIBILITY. N/A MEANS
CURRENT SKY AND/OR WEATHER CONDITIONS ARE NOT AVAILABLE.

MNZ060>063-068>070-282000-
   Twin Cities Metro

CITY           SKY/WX    TMP DP  RH WIND       PRES   REMARKS
TWIN CITIES    PTSUNNY   83  67  58 S12       30.12F
ST PAUL        PTSUNNY   82  68  62 S13       30.12F
CRYSTAL        PTSUNNY   82  67  60 S8        30.10F
BLAINE         CLOUDY    77  72  83 E12       30.13F
LAKEVILLE      MOSUNNY   81  70  69 S8        30.13F
EDEN PRAIRIE   MOSUNNY   84  69  60 S12       30.11F
LAKEVILLE      MOSUNNY   81  70  69 S8        30.13F
SOUTH ST PAUL  MOSUNNY   82  67  60 SE7       30.12F
LAKE ELMO      CLOUDY    79  70  73 S9        30.15F
$$
MNZ001>005-007-008-013>017-022>024-027-028-282000-
   Northwest Minnesota

CITY           SKY/WX    TMP DP  RH WIND       PRES   REMARKS
BEMIDJI        MOSUNNY   73  64  73 E8        30.08F
HALLOCK        SUNNY     82  61  47 SE20G26   29.96F
ROSEAU         SUNNY     75  66  73 SE13      30.04S
WARROAD        MOSUNNY   72  66  83 SE10      30.07R
THIEF RVR FALL SUNNY     78  64  61 SE14      30.02F
CROOKSTON      SUNNY     79  66  65 S15       29.99F
FOSSTON        CLOUDY    73  66  78 E6        30.04F
DETROIT LAKES  SUNNY     79  64  61 SE15      30.04F
MOORHEAD       SUNNY     82  64  54 S18G24    29.98F
PARK RAPIDS    SUNNY     80  63  55 SE15      30.07F
MAHNOMEN       FAIR      77  64  63 SE14      30.02F
$$
MNZ006-009>011-018-025>026-282000-
   North Central Minnesota

CITY           SKY/WX    TMP DP  RH WIND       PRES   REMARKS
BAUDETTE       CLOUDY    69  64  84 SE10      30.08F
FLAG ISLAND    CLOUDY    64  63  94 SE3       30.07S
INTL FALLS     PTSUNNY   71  62  73 SE9       30.12F
WASKISH        MOSUNNY   73  66  78 SE7       30.09F
BIG FORK       MOSUNNY   72  63  73 E5        30.13F
LONGVILLE      SUNNY     79  63  57 SE6       30.10F
GRAND RAPIDS   SUNNY     74  62  66 SE10      30.14F
ORR            CLOUDY    66  59  77 S5        30.13F
COOK           PTSUNNY   68  63  83 SE3       30.17S
WALKER         FAIR      74  62  64 SE7       30.08F
$$
MNZ012-019>021-037-282000-
   Northeast Minnesota

CITY           SKY/WX    TMP DP  RH WIND       PRES   REMARKS
DULUTH         PTSUNNY   69  63  81 S10       30.18S
ELY            PTSUNNY   66  61  82 CALM      30.17F
HIBBING        MOSUNNY   69  62  78 VRB3      30.16S
EVELETH        MOSUNNY   73  63  72 CALM      30.18S
DULUTH HARBOR  MOSUNNY   70  63  78 NE7       30.17S
TWO HARBORS    CLOUDY    70  63  78 S3        30.17S
SILVER BAY     CLOUDY    66  61  82 S3        30.17F
GRAND MARAIS     N/A     66  55  67 SW7       30.18S
G MARAIS ARPRT SUNNY     66  55  68 SE8       30.21S
$$
MNZ029>031-032-039>041-046>048-054>057-064-282000-
   West Central Minnesota

CITY           SKY/WX    TMP DP  RH WIND       PRES   REMARKS
FERGUS FALLS   SUNNY     81  66  61 S18G24    30.02F
WHEATON        SUNNY     82  73  74 S15G21    30.00F
MORRIS         SUNNY     86  70  58 S18       30.02F HX  90
ALEXANDRIA     MOSUNNY   81  68  64 SE13      30.08F
ELBOW LAKE     FAIR      83  70  65 S18G26    30.03F
WADENA         SUNNY     79  64  61 SE15      30.07S
GLENWOOD       SUNNY     82  70  65 S17       30.08F
APPLETON       SUNNY     82  72  69 S13       30.02F
BENSON         SUNNY     84  70  61 S15       30.04F
ORTONVILLE     SUNNY     81  72  74 S10G20    30.01F
MADISON        SUNNY     81  72  74 S13G20    30.03F
WILLMAR        FAIR      82  72  69 S8        30.08F
$$
MNZ033>034-036-042>043-049>051-058-059-282000-
   Central Minnesota

CITY           SKY/WX    TMP DP  RH WIND       PRES   REMARKS
ST CLOUD       CLOUDY    74  70  87 SE9       30.11F
SAUK CENTRE    FAIR      78  70  76 SE13      30.09F
PAYNESVILLE    MOSUNNY   82  69  63 S10       30.09F
AITKIN         PTSUNNY   79  63  57 S13       30.12S
PINE RIVER     MOSUNNY   77  66  69 SE14      30.12F
BRAINERD       PTSUNNY   77  65  66 SE10      30.11F
STAPLES        SUNNY     77  63  61 SE8G17    30.09S
LONG PRAIRIE   FAIR      77  68  73 E7        30.10S
LITTLE FALLS   PTSUNNY   75  64  69 SE10      30.11S
LITCHFIELD     SUNNY     84  72  65 S7        30.09S
BUFFALO        PTSUNNY   80  67  65 SE8       30.12S
MAPLE LAKE     PTSUNNY   77  74  90 E8        30.11F
HUTCHINSON     MOSUNNY   82  72  72 SE7       30.11F
$$
MNZ037-044-045-052-053-282000-
   East Central Minnesota

CITY           SKY/WX    TMP DP  RH WIND       PRES   REMARKS
PRINCETON      CLOUDY    77  70  78 E8        30.13S
MORA           CLOUDY    72  64  78 SE7       30.17R
CAMBRIDGE      MOSUNNY   77  66  69 SE8       30.12F
RUSH CITY      CLOUDY    72  67  84 S5        30.16S
MOOSE LAKE     PTSUNNY   73  63  68 S3        30.15S
HINCKLEY       CLOUDY    73  68  83 SE6       30.16S
CLOQUET        MOSUNNY   72  63  73 S6        30.17S
MCGREGOR       MOSUNNY   73  63  68 S9        30.15S
$$
MNZ071>073-080-081-089-090-097-098-282000-
   Southwest Minnesota

CITY           SKY/WX    TMP DP  RH WIND       PRES   REMARKS
MONTEVIDEO     SUNNY     82  73  74 S12       30.06F
GRANITE FALLS  SUNNY     83  74  73 SE16      30.07F HX  90
CANBY          MOSUNNY   85  74  69 SE10G18   30.05F HX  92
MARSHALL       MOSUNNY   85  74  69 S20       30.06F HX  92
REDWOOD FALLS  MOSUNNY   83  72  69 S14       30.08F
OLIVIA         SUNNY     82  70  65 S9        30.08S
PIPESTONE      MOSUNNY   82  72  69 S13       30.09F
WINDOM         SUNNY     84  72  65 SE14      30.10F
WORTHINGTON    MOSUNNY   82  73  74 SE13      30.11F
JACKSON          N/A     82  68  61 SE10      30.13F
TRACY          MOSUNNY   84  74  71 S15       30.09S HX  90
SLAYTON        MOSUNNY   82  72  69 S13       30.11F
$$
MNZ065>067-074>077-082>085-091>093-282000-
   South Central Minnesota

CITY           SKY/WX    TMP DP  RH WIND       PRES   REMARKS
MANKATO        MOSUNNY   82  70  65 SE13      30.12F
NEW ULM        SUNNY     82  70  65 S12       30.11S
ST JAMES       SUNNY     79  64  61 SE13      30.12S
FAIRMONT       MOSUNNY   82  70  65 S14       30.12F
GLENCOE        PTSUNNY   83  73  72 SE9       30.11S
FARIBAULT      MOSUNNY   82  68  61 S9        30.14F
OWATONNA       MOSUNNY   81  66  61 SE10G16   30.15S
WASECA         MOSUNNY   79  68  69 SE10      30.16S
ALBERT LEA     MOSUNNY   81  66  61 S10G16    30.15S
$$
MNZ078>079-086>088-094>096-282000-
   Southeast Minnesota

CITY           SKY/WX    TMP DP  RH WIND       PRES   REMARKS
ROCHESTER      MOSUNNY   80  68  66 VRB7      30.18S
RED WING       MOSUNNY   81  70  69 SE9       30.13S
STANTON        MOSUNNY   82  66  57 SW8       30.13S
DODGE CENTER   PTSUNNY   81  66  61 S12       30.17S
WINONA         PTSUNNY   77  66  69 E8        30.17F
AUSTIN         MOSUNNY   81  68  65 S8        30.16S
PRESTON        MOSUNNY   79  67  65 S9        30.18F
$$
ABBREVIATIONS USED IN REMARKS
   TC - TEMPERATURES IN CELSIUS
  WCI - WIND CHILL INDEX
   HX - HEAT INDEX
  VSB - VISIBILITY
$$




USA.gov is the U.S. government's official web portal to all federal, state and local government web resources and services.